EHI
0 17 38 28 6 0 0 0 0 0 0 0 0 0 0 0 0 0 0 0 0 0 0 0 0 0 0 0 0 0 0 0 0 0 0 0 0 0 0 0 0 0 0
1 16 39 34 11 1 0 0 0 0 0 0 0 0 0 0 0 0 0 0 0 0 0 0 0 0 0 0 0 0 0 0 0 0 0 0 0 0 0 0 0 0 0
4 11 27 31 17 4 1 0 0 0 0 0 0 0 0 0 0 0 0 0 0 0 0 0 0 0 0 0 0 0 0 0 0 0 0 0 0 0 0 0 0 0 0
8 8 17 26 25 18 11 3 0 0 0 0 0 0 0 0 0 0 0 0 0 0 0 0 0 0 0 0 0 0 0 0 0 0 0 0 0 0 0 0 0 0 0
8 11 26 37 40 44 35 14 2 0 0 0 0 0 0 0 0 0 0 0 0 0 0 0 0 0 0 0 0 0 0 0 0 0 0 0 0 0 0 0 0 0 0
6 17 45 60 64 73 64 31 7 1 0 0 0 0 0 0 0 0 0 0 0 0 0 0 0 0 0 0 0 0 0 0 0 0 0 0 0 0 0 0 0 0 0
10 27 61 82 86 92 83 51 20 6 1 0 0 0 0 0 0 0 0 0 0 0 0 0 0 0 0 0 0 0 0 0 0 0 0 0 0 1 4 6 6 4 2
19 38 70 90 96 99 93 74 49 30 15 5 0 0 0 0 0 0 0 0 0 0 0 0 0 0 0 0 0 0 0 0 0 0 0 0 0 5 17 28 29 23 17
18 38 64 81 89 94 96 92 83 68 46 22 6 1 0 0 0 0 0 0 0 0 0 0 0 0 0 0 0 0 0 0 0 0 0 0 0 10 36 58 61 54 48
8 21 41 54 64 72 79 87 89 80 59 33 10 1 0 0 0 0 0 0 0 0 0 0 0 0 0 0 0 0 0 0 0 0 0 0 1 14 47 77 85 80 77
1 5 15 24 31 38 46 55 58 49 35 20 7 1 0 0 0 0 0 0 0 0 0 0 0 1 1 1 0 0 0 0 0 0 0 0 1 16 52 84 95 94 93
3 2 3 6 10 14 18 20 19 14 8 4 1 0 0 0 0 0 0 0 0 0 0 1 1 1 2 1 0 0 0 0 0 0 0 0 2 16 50 84 98 99 99
14 7 2 1 2 4 5 3 1 0 0 0 0 0 0 0 0 0 0 0 0 1 1 1 1 1 1 0 0 0 0 0 0 0 0 1 4 18 47 79 95 99 100
33 19 8 5 3 1 0 0 0 0 0 0 0 0 0 0 0 0 0 0 1 2 3 3 2 1 0 0 0 0 0 0 0 0 0 4 13 30 55 76 88 94 96
49 34 27 25 14 4 2 2 1 1 0 0 1 1 1 4 6 6 4 1 1 3 4 4 2 1 0 0 0 0 0 0 0 0 1 9 27 48 67 78 85 89 90
63 53 51 51 34 15 10 12 13 12 8 5 4 4 6 14 23 25 17 8 5 6 5 4 2 0 0 0 0 0 0 0 0 0 1 8 28 52 67 76 82 85 85
78 73 70 70 56 34 24 26 27 23 16 9 6 5 8 19 32 36 27 15 11 12 11 7 3 1 0 0 0 0 0 0 0 0 0 3 15 36 55 65 72 75 76
91 87 83 81 72 50 32 26 22 16 11 6 3 3 4 10 19 23 20 15 17 22 23 17 10 6 3 0 0 0 0 0 0 0 0 1 6 19 37 50 53 53 54
97 93 85 75 61 42 23 12 6 3 2 1 0 0 0 1 4 5 8 15 26 36 38 31 23 16 8 3 1 0 0 0 0 0 0 1 3 9 18 28 33 29 26
93 85 67 45 27 16 8 3 0 0 0 0 0 0 0 0 0 3 8 21 37 48 49 44 34 22 13 6 2 0 0 0 0 0 0 0 1 2 4 9 13 12 9
69 57 35 16 4 1 1 0 0 0 0 0 0 0 0 0 1 5 13 23 35 46 50 44 34 22 13 7 3 1 0 0 0 0 0 0 0 0 0 2 3 4 4
32 24 13 5 2 1 1 1 0 0 0 0 0 0 0 1 2 7 16 24 28 33 34 29 22 15 8 5 3 1 0 0 0 0 0 0 0 0 0 1 1 1 1
8 7 6 7 7 7 5 3 1 0 0 0 0 0 0 1 2 6 14 21 21 20 17 12 9 6 2 1 2 1 0 0 0 0 0 0 0 0 0 0 0 0 0
2 3 5 9 12 11 9 6 2 0 0 0 0 0 0 0 1 3 7 11 13 11 7 3 1 1 0 0 0 0 0 0 0 0 0 0 0 0 0 0 0 0 0
1 1 2 6 9 10 9 5 1 0 0 0 0 0 0 0 0 0 1 2 4 4 2 0 0 0 0 0 0 0 0 0 0 0 0 0 0 0 0 0 0 0 0
0 0 1 2 4 7 7 4 1 0 0 0 0 0 0 0 0 0 0 0 1 1 0 0 0 0 0 0 0 0 0 0 0 0 0 0 0 0 0 0 0 0 0
Wind_Speed
11 13 20 21 20 18 16 15 14 14 13 13 14 15 14 14 14 13 12 12 11 11 11 12 12 12 12 12 12 12 11 11 11 11 11 11 11 10 9 11 11 8 11
14 15 21 22 21 19 17 15 14 14 13 12 12 13 13 12 12 12 11 10 10 10 9 9 10 10 10 10 10 10 9 8 7 8 9 9 9 9 8 8 11 7 11
16 12 18 21 21 20 18 16 15 14 13 13 12 12 12 11 10 10 10 10 9 9 8 8 8 8 8 8 7 6 6 5 4 5 6 4 4 7 8 10 11 10 10
17 11 14 20 20 20 19 17 16 15 14 13 12 11 11 10 9 9 9 9 8 8 8 7 7 7 6 6 5 4 2 2 1 1 1 2 3 6 8 11 11 9 9
14 11 15 21 20 20 19 18 17 16 15 13 12 11 10 9 9 9 8 8 8 7 7 7 7 6 6 6 5 4 3 3 3 2 2 2 4 8 10 11 11 10 9
13 11 15 21 20 19 19 18 17 16 15 14 13 11 10 9 9 9 9 8 8 7 7 7 6 6 6 6 7 6 6 6 5 3 3 5 5 11 13 12 12 11 10
13 10 13 20 19 19 19 18 17 16 15 14 13 12 11 10 9 9 9 8 8 8 7 7 7 7 7 7 7 8 8 8 5 4 4 4 5 11 15 14 13 12 12
16 11 12 19 19 18 18 18 18 17 16 14 13 12 11 10 10 10 10 10 9 9 8 8 9 9 9 9 9 8 9 9 7 5 4 3 8 13 17 16 15 15 15
15 12 9 11 14 18 19 19 18 18 16 15 14 13 12 12 12 12 12 12 12 11 11 11 11 12 12 11 11 10 11 12 7 5 6 4 7 15 19 18 17 17 16
12 11 9 8 8 8 11 17 18 18 17 16 16 15 14 13 13 13 11 12 14 14 14 14 15 15 14 13 13 13 14 12 7 6 5 6 11 15 20 19 18 18 17
10 8 8 7 7 6 6 11 14 15 15 15 13 15 13 7 7 8 12 14 16 17 17 17 17 17 15 14 15 15 14 6 6 6 6 11 14 15 19 19 19 18 18
11 10 8 8 7 7 8 6 4 5 6 6 5 6 5 4 5 8 10 17 18 19 19 19 18 16 13 6 10 13 7 8 6 6 7 15 16 16 18 20 20 20 19
13 12 10 9 8 7 5 4 3 3 3 5 6 6 5 5 5 6 5 8 11 15 11 11 11 8 7 6 5 6 7 7 6 6 8 16 17 17 18 19 20 20 19
13 13 12 11 10 9 6 5 6 5 4 6 7 8 6 5 5 6 5 6 6 6 7 7 5 7 8 9 8 8 9 7 6 6 8 17 17 16 17 18 19 19 18
12 12 13 12 12 10 7 6 7 7 7 8 8 9 9 7 7 7 6 5 6 6 6 6 7 9 9 10 10 10 11 10 9 8 6 15 17 16 17 18 19 19 19
11 10 11 14 13 10 8 7 6 6 6 6 7 9 10 9 8 8 7 6 6 6 7 7 9 9 9 8 9 10 9 8 8 8 8 10 16 18 18 19 19 19 20
8 7 8 11 10 9 8 7 5 4 4 4 5 6 8 9 8 8 7 7 6 6 7 6 7 6 7 7 8 8 6 6 6 7 8 7 8 15 19 19 19 20 21
5 4 5 5 6 6 5 3 2 2 3 3 3 4 6 7 8 7 7 8 7 6 5 5 5 5 5 5 5 5 5 5 7 7 7 7 7 8 12 19 20 20 21
5 5 5 5 4 1 1 2 3 3 4 4 4 5 7 8 8 7 8 8 8 6 6 6 5 5 5 5 5 5 6 6 7 8 8 8 8 8 8 11 18 19 21
5 5 5 4 4 4 2 1 1 3 3 3 4 5 8 7 8 7 7 9 8 7 7 6 7 6 5 5 7 6 6 6 5 6 8 8 8 10 9 9 9 11 19
4 3 3 3 3 2 1 1 2 3 3 4 4 6 7 7 8 6 6 7 7 7 9 8 6 7 6 4 3 5 5 7 8 8 7 7 9 10 9 9 7 7 7
2 3 3 3 3 3 3 3 3 3 3 4 4 5 7 7 7 6 6 6 6 6 7 7 6 5 5 4 4 3 3 4 5 7 6 5 7 6 7 7 7 6 6
4 6 6 7 6 6 6 3 2 2 3 3 5 5 6 7 7 7 7 6 6 6 6 7 7 7 6 5 5 5 4 5 3 3 2 1 2 2 2 3 3 3 3
8 7 8 7 6 6 5 3 4 3 4 5 5 5 7 8 8 7 7 7 6 5 6 7 6 5 6 5 4 4 5 4 3 3 3 1 1 1 2 3 3 2 0
9 7 6 5 4 3 3 3 2 3 4 4 5 7 8 8 8 8 7 7 7 6 7 7 6 6 5 5 4 3 3 3 4 4 3 3 1 2 3 3 2 0 1
5 4 4 4 2 1 2 1 1 2 4 6 7 8 8 7 7 9 8 7 7 6 6 6 6 6 5 4 4 3 3 3 3 3 3 2 2 3 2 1 1 1 1
Wind_Direction
156 157 153 151 149 146 143 141 136 127 120 116 112 109 107 107 108 110 111 113 113 113 114 113 111 109 107 107 108 110 115 121 125 124 120 115 110 105 103 113 111 101 98
152 155 153 153 152 149 146 143 138 132 128 126 123 121 120 119 119 119 120 121 120 118 117 115 113 111 109 107 109 113 117 120 123 122 119 118 116 106 98 129 127 123 113
144 152 153 155 155 151 147 144 142 141 139 139 137 134 133 132 132 131 131 132 132 129 126 123 121 117 116 115 115 116 118 116 113 121 124 121 128 124 114 118 128 128 124
144 148 153 157 156 153 149 149 150 151 151 151 152 150 147 147 147 146 144 143 144 145 145 144 141 138 138 139 139 141 146 141 137 173 165 181 183 161 149 139 140 140 136
143 147 155 159 160 156 153 154 157 159 161 162 163 163 162 162 164 164 162 159 159 162 165 165 163 163 165 169 175 184 209 237 242 247 265 262 246 196 182 166 157 157 156
144 148 155 159 164 162 160 160 163 165 167 168 170 173 174 176 179 179 178 177 177 179 185 185 185 188 194 196 199 208 219 237 252 231 226 246 238 204 195 187 175 171 173
146 153 156 159 165 166 165 166 168 170 173 175 178 180 182 185 190 192 194 196 197 200 203 206 209 208 215 222 225 228 231 243 250 244 231 236 221 196 197 197 188 184 185
151 156 157 161 165 167 168 170 173 175 178 181 185 188 192 197 201 202 205 210 214 218 221 226 222 218 220 226 231 237 243 251 258 256 248 228 216 204 203 201 196 196 197
153 158 161 164 167 170 172 174 177 179 182 186 192 196 201 206 209 210 212 217 221 225 228 232 226 224 225 227 230 235 242 248 250 255 263 254 234 216 210 204 201 204 204
156 163 165 166 168 172 176 180 182 185 188 191 196 201 205 208 211 215 216 222 227 230 231 231 230 229 229 230 233 237 244 250 247 247 251 252 251 230 218 210 207 210 211
158 168 168 169 168 169 178 189 189 194 198 199 204 208 210 215 217 220 224 225 231 233 235 235 235 235 235 236 238 241 247 243 237 244 246 248 246 238 224 216 212 215 216
167 174 175 176 172 170 186 188 193 201 205 207 208 215 214 217 226 230 232 235 236 237 239 240 241 243 244 241 243 245 243 243 241 243 246 249 250 245 230 219 215 217 219
172 175 177 180 179 181 191 179 189 204 206 213 214 215 219 224 235 239 238 243 242 243 241 244 243 241 242 240 235 235 242 246 241 240 245 250 251 250 234 219 216 218 219
174 181 179 181 183 191 194 190 193 205 209 214 220 220 218 226 234 238 239 238 235 234 231 231 234 237 241 244 243 243 244 244 242 235 241 247 246 241 229 218 217 219 220
177 183 181 184 188 192 193 196 199 209 214 216 217 221 219 221 229 235 238 237 235 229 224 224 229 236 239 242 243 243 247 247 241 234 239 242 236 228 224 222 222 221 223
178 180 177 185 191 191 192 193 200 209 218 223 224 224 221 224 229 232 236 235 231 226 225 222 224 231 236 238 240 240 241 240 234 231 234 242 233 225 226 228 228 227 227
168 165 169 183 189 195 201 202 202 210 218 224 229 232 228 226 231 234 239 241 235 224 220 221 225 227 233 235 239 242 244 242 238 236 238 235 235 232 230 230 231 231 230
135 133 153 169 182 208 221 233 255 274 280 273 266 262 256 244 237 238 243 248 241 229 220 218 215 216 226 229 236 246 252 258 257 253 249 238 230 233 231 230 232 234 235
101 96 94 89 90 63 353 330 311 300 288 279 274 269 267 265 258 245 246 248 242 234 229 229 222 211 224 231 237 244 245 248 254 259 256 247 236 231 230 231 232 235 239
109 107 113 132 149 152 153 212 261 277 272 273 272 268 268 266 263 251 245 244 238 236 237 230 228 224 223 229 246 252 245 244 244 247 252 252 246 240 234 231 233 239 242
126 138 161 175 182 168 171 201 237 257 264 271 267 268 274 274 270 259 255 249 239 236 237 233 229 235 238 224 235 264 267 252 248 249 247 248 250 246 236 233 231 231 240
165 184 196 205 208 196 191 199 208 225 251 259 271 282 279 278 276 275 263 257 248 242 244 238 227 231 241 213 205 236 284 293 256 246 246 255 264 260 250 246 242 234 232
192 198 198 204 205 206 205 199 226 269 288 290 290 286 281 280 278 272 264 257 251 240 242 241 231 229 240 238 207 201 217 242 284 284 242 254 319 330 313 296 269 242 225
204 196 190 191 196 206 201 198 221 243 262 267 273 278 284 283 278 271 261 251 245 237 238 242 236 227 227 238 227 214 213 199 220 287 300 274 303 301 293 283 289 293 189
203 192 189 185 196 203 188 194 226 261 270 284 291 290 290 287 278 271 261 250 242 234 233 234 234 226 220 221 212 203 212 216 209 214 267 297 326 278 259 248 247 261 89
202 185 177 170 184 171 130 108 84 308 307 311 308 302 297 291 285 274 264 251 240 234 234 232 227 217 212 203 196 190 184 186 199 195 221 258 302 297 297 319 31 49 74